EW4052 Weather Reports


Display with metric or nautical units.
time (UTC)temp
F
wind
direction
speed
MPH
gust
MPH
rain 1hr
in
rain 24hr
in
rain mn
in
humidity
%
barometer
mb
20260901223008 87 53 0.0 3.0 0.00 0.14 0.14 68 1009.9
20260901221504 87 43 0.0 3.0 0.00 0.14 0.14 68 1009.9
20260901220107 87 333 0.0 1.0 0.00 0.14 0.14 68 1010.0
20260901214555 87 313 0.0 1.0 0.00 0.14 0.14 67 1010.1
20260901213050 87 328 0.0 0.0 0.00 0.14 0.14 66 1010.0
20260901211546 88 327 0.0 4.0 0.00 0.14 0.14 66 1010.0
20260901210042 88 5 0.0 1.0 0.00 0.14 0.14 67 1010.1
20260901204536 88 134 0.0 7.0 0.00 0.14 0.14 66 1010.3
20260901203038 88 360 2.0 7.0 0.00 0.14 0.14 68 1010.6
20260901201528 87 44 2.0 6.0 0.00 0.14 0.14 68 1010.7
20260901200027 85 21 0.0 4.0 0.00 0.14 0.14 66 1011.0
20260901194518 84 9 0.0 3.0 0.00 0.14 0.14 60 1011.0
20260901193014 82 5 0.0 4.0 0.00 0.14 0.14 53 1011.3
20260901191510 81 9 0.0 5.0 0.00 0.14 0.14 29 1011.4
20260901190015 79 349 0.0 4.0 0.01 0.14 0.14 100 1011.5
20260901184601 77 336 0.0 0.0 0.08 0.14 0.14 100 1011.6
20260901183057 75 336 0.0 0.0 0.10 0.14 0.14 100 1011.8
20260901181558 75 335 0.0 0.0 0.14 0.14 0.14 100 1011.2
20260901180047 78 336 0.0 0.0 0.13 0.13 0.13 15 1013.0
20260901174543 81 5 0.0 0.0 0.06 0.06 0.06 60 1012.7
20260901173039 85 5 0.0 0.0 0.03 0.03 0.03 69 1012.5
20260901171545 85 12 0.0 4.0 0.00 0.00 0.00 68 1012.4
20260901170030 83 10 1.0 4.0 0.00 0.00 0.00 62 1012.4
20260901164525 83 11 0.0 4.0 0.00 0.00 0.00 59 1012.3
20260901163020 82 13 1.0 5.0 0.00 0.00 0.00 52 1012.4
20260901161519 81 350 0.0 0.0 0.00 0.00 0.00 46 1012.5
20260901160015 80 350 0.0 0.0 0.00 0.00 0.00 33 1012.5
20260901154507 79 350 0.0 0.0 0.00 0.00 0.00 36 1012.5
20260901153003 79 355 0.0 0.0 0.00 0.00 0.00 39 1012.6
20260901151606 78 355 0.0 0.0 0.00 0.00 0.00 30 1012.5
20260901150055 77 355 0.0 0.0 0.00 0.00 0.00 3 1012.4
20260901144550 76 355 0.0 0.0 0.00 0.00 0.00 100 1012.4
20260901143052 75 276 0.0 0.0 0.00 0.00 0.00 100 1012.6
20260901141540 74 276 0.0 0.0 0.00 0.00 0.00 100 1012.8
20260901140036 73 276 0.0 0.0 0.00 0.00 0.00 100 1012.8
20260901134535 71 275 0.0 0.0 0.00 0.00 0.00 100 1012.7
20260901133026 69 275 0.0 0.0 0.00 0.00 0.00 100 1012.7
20260901131522 69 275 0.0 0.0 0.00 0.00 0.00 100 1012.6
20260901130018 68 275 0.0 0.0 0.00 0.00 0.00 100 1012.7
20260901124513 0 275 0.0 0.0 0.00 0.00 0.00 1012.6
20260901123008 0 275 0.0 0.0 0.00 0.00 0.00 1012.4
20260901121504 0 275 0.0 0.0 0.00 0.00 0.00 1012.3
20260901114555 0 275 0.0 0.0 0.00 0.00 0.00 1012.1
20260901113058 0 275 0.0 0.0 0.00 0.00 0.00 1012.2
20260901111549 0 275 0.0 0.0 0.00 0.00 0.00 1012.1
20260901110042 0 275 0.0 0.0 0.00 0.00 0.00 1012.2
20260901104548 0 275 0.0 0.0 0.00 0.00 0.00 1012.1
20260901103033 67 275 0.0 0.0 0.00 0.00 0.00 100 1012.0
20260901101532 67 275 0.0 0.0 0.00 0.00 0.00 100 1012.0
20260901100025 68 275 0.0 0.0 0.00 0.00 0.00 100 1012.1
20260901094520 69 275 0.0 0.0 0.00 0.00 0.00 100 1012.0
20260901093015 70 275 0.0 0.0 0.00 0.00 0.00 100 1012.0
20260901091511 70 275 0.0 0.0 0.00 0.00 0.00 100 1011.8
20260901090012 70 275 0.0 0.0 0.00 0.00 0.00 100 1011.8
20260901084502 69 275 0.0 0.0 0.00 0.00 0.00 100 1011.7
20260901083103 69 275 0.0 0.0 0.00 0.00 0.00 100 1011.9
20260901081602 70 275 0.0 0.0 0.00 0.00 0.00 100 1012.0
20260901080100 69 275 0.0 0.0 0.00 0.00 0.00 100 1012.1
20260901074555 69 275 0.0 0.0 0.00 0.00 0.00 100 1012.2
20260901073052 70 275 0.0 0.0 0.00 0.00 0.00 100 1012.3
20260901071546 70 275 0.0 0.0 0.00 0.00 0.00 100 1012.1
20260901070050 70 275 0.0 0.0 0.00 0.00 0.00 100 1012.1
20260901064543 70 275 0.0 0.0 0.00 0.00 0.00 100 1012.2
20260901063037 70 275 0.0 0.0 0.00 0.00 0.00 100 1012.1
20260901061529 70 275 0.0 0.0 0.00 0.00 0.00 100 1012.2
20260901060025 71 275 0.0 0.0 0.00 0.00 0.00 100 1012.1
20260901054520 71 275 0.0 0.0 0.00 0.00 0.00 100 1012.1
20260901053016 71 275 0.0 0.0 0.00 0.00 0.00 100 1012.0
20260901051511 72 275 0.0 0.0 0.00 0.00 0.00 100 1012.0
20260901050007 72 275 0.0 0.0 0.00 0.00 0.00 100 1011.9
20260901044505 72 275 0.0 0.0 0.00 0.00 0.00 100 1011.9
20260901043058 72 275 0.0 0.0 0.00 0.00 0.00 100 1011.8
20260901041555 72 275 0.0 0.0 0.00 0.00 0.00 100 1011.6
20260901040049 72 275 0.0 0.0 0.00 0.00 0.00 100 1011.5
20260901034544 72 275 0.0 0.0 0.00 0.00 0.00 100 1011.4
20260901033040 72 275 0.0 0.0 0.00 0.00 0.00 100 1011.4
20260901031536 73 275 0.0 0.0 0.00 0.00 0.00 100 1011.4
20260901030039 73 275 0.0 0.0 0.00 0.00 0.00 100 1011.4
20260901024530 73 275 0.0 0.0 0.00 0.00 0.00 100 1011.4
20260901023023 73 275 0.0 0.0 0.00 0.00 0.00 100 1011.3
20260901021518 74 275 0.0 0.0 0.00 0.00 0.00 100 1011.2
20260901020013 74 275 0.0 0.0 0.00 0.00 0.00 100 1011.1
20260901014508 75 275 0.0 0.0 0.00 0.00 0.00 100 1010.9
20260901013004 76 275 0.0 0.0 0.00 0.00 0.00 100 1010.6
20260901011607 77 275 0.0 0.0 0.00 0.00 0.00 100 1010.3
20260901010056 78 275 0.0 0.0 0.00 0.00 0.00 20 1010.3
20260901004556 79 275 0.0 0.0 0.00 0.00 0.00 36 1010.2
20260901003047 80 275 0.0 0.0 0.00 0.00 0.00 47 1009.9
20260901001544 81 275 0.0 0.0 0.00 0.00 0.00 55 1010.0
20260901000044 81 275 0.0 0.0 0.00 0.00 0.00 59 1010.0
20260831234533 82 275 0.0 4.0 0.00 0.00 0.00 64 1010.1
20260831233029 83 275 3.0 7.0 0.00 0.00 0.00 65 1010.1
20260831231526 83 259 5.0 7.0 0.00 0.00 0.00 66 1010.1
20260831230020 83 252 4.0 7.0 0.00 0.00 0.00 66 1010.0
20260831224515 84 235 5.0 7.0 0.00 0.00 0.00 69 1009.9